KOREASAT-6A

导读

KOREASAT 6A是韩国于2024年11月11日发射的通信卫星,属于韩国KT SAT公司Koreasat系列卫星的新一代通信广播卫星,主要接替前代卫星服务。卫星配置多频段转发器,定点于地球静止轨道,可覆盖韩国本土及东亚、东南亚部分区域,为用户提供广播电视传输、宽带通信、电信基础设施服务,设计寿命超15年,助力韩国卫星通信网络的更新迭代,保障区域通信广播服务稳定可靠。

基本信息
目录编号:
61910
目录名称:
KOREASAT 6A
国际标识:
2024-206A
轨道中心:
EARTH
卫星名称:
KOREASAT 6A
卫星全名:
KOREASAT-6A
卫星状态:
在轨 (已飞行672 天)
发射日期:
2024-11-11 UTC
国别 :
韩国 (KR)
星等 :
--
该卫星已列入 空间交会检测服务 Space Conjunction Data Service (SCDS) ,当前飞行风险评估等级: 无高风险
轨道信息
数据来源 国际轨道数据 AOE轨道数据
星历时间 2026-09-14T03:32:18+0800
5小时前
查看轨道信息
2026-09-13T03:00:00+0800
1天前
查看轨道信息
半长轴 42164.364km 42164.055km
偏心率 0.0000886 0.0001066
轨道倾角 0.010° 0.009°
近地点辐角 345.914° 352.468°
升交点赤经 164.568° 161.474°
平近点角 251.420° 238.873°
近地点 35782.491km 35781.423km
远地点 35789.963km 35790.413km
周期 1436.078分钟 1436.062分钟
每日圈数 1.002731 1.002742
详细信息
使用方式:
暂无
2D轨道图
3D轨道图
轨道高度分析图
轨道倾角分析图
轨道综合分析图
查看轨道综合分析图
与全量物体交会距离演化趋势
与全量物体交会风险概率演化趋势